Track STARLINK-1227 now! 10-day predictions STARLINK-1227 is classified as:
1 45230U 20012BE 22138.40108473 .00001016 00000-0 87098-4 0 9996 2 45230 53.0548 132.3507 0002061 51.3112 308.8062 15.06406966125710